Weather Roundup
Issued by NWS Springfield, MO

Home | Current Version | Previous Version | Text Only | Print | Product List | Glossary On
Versions: 1 2 3 4 5 6 7 8 9 10 11 12 13 14 15 16 17 18 19 20 21 22 23 24 25 26 27 28 29 30 31 32 33 34 35 36 37 38 39 40 41 42 43 44 45 46 47 48 49 50
000
NZUS99 KSGF 232107
HRRSGF

HOURLY WEATHER
NATIONAL WEATHER SERVICE SPRINGFIELD MO
400 PM CDT WED APR 23 2014

......SGF CWA......

CITY           SKY/WX    TMP DP  RH WIND       PRES   REMARKS
SPRINGFIELD    SUNNY     76  42  29 SE16      29.88F
JOPLIN         SUNNY     80  47  31 S14       29.82F
WEST PLAINS    SUNNY     73  37  27 SE9       29.96F
ROLLA          CLOUDY    69  35  28 E8        29.93F
OSAGE BEACH    CLOUDY    72  36  26 E7        29.93F
BRANSON        MOSUNNY   77  41  27 SE8G17    29.91F

......SURROUNDING SGF CWA......

CITY           SKY/WX    TMP DP  RH WIND       PRES   REMARKS
CHANUTE        SUNNY     82  47  29 S18       29.79F
PARSONS        SUNNY     83  46  27 S13G25    29.80F
COFFEYVILLE    SUNNY     82  49  31 S17G25    29.79F
EMPORIA        SUNNY     82  46  28 S23G37    29.72F
GROVE OK       SUNNY     82  50  32 SE12      29.83F
ROGERS AR      SUNNY     79  43  27 SE12      29.88F
SILOAM SPRINGS SUNNY     79  52  38 S13       29.88F
HARRISON AR    SUNNY     78  41  26 E10       29.90F
NEAR YELLVILLE SUNNY     77  45  31 E8        29.91F

......KANSAS AND MISSOURI......

CITY           SKY/WX    TMP DP  RH WIND       PRES   REMARKS
KANSAS CTY INT PTSUNNY   72  41  32 SE21      29.82F
DOWNTOWN KC    MOSUNNY   73  42  32 S16G24    29.82F
COLUMBIA       MOSUNNY   67  38  34 SE14      29.94F
SEDALIA        MOSUNNY   71  40  32 E20       29.90F
ST JOSEPH      CLOUDY    68  41  37 SE16      29.80F
ST LOUIS       CLOUDY    64  35  34 E13G20    30.02F
SPIRIT OF STL  CLOUDY    62  36  37 SE7       30.01F
KIRKSVILLE     CLOUDY    60  38  43 E17G24    29.97F
WICHITA        PTSUNNY   87  45  23 S26G35    29.69F
TOPEKA         PTSUNNY   80  46  30 S18G25    29.76F
OLATHE         MOSUNNY   71  45  39 SE16G28   29.81F

......TENNESSEE......

CITY           SKY/WX    TMP DP  RH WIND       PRES   REMARKS
MEMPHIS        MOSUNNY   77  32  19 VRB5      29.95F
NASHVILLE      MOSUNNY   70  34  26 N7        30.00F

......ARKANSAS.......

CITY           SKY/WX    TMP DP  RH WIND       PRES   REMARKS
FAYETTEVILLE   SUNNY     77  50  38 S10G23    29.88F
FT SMITH       MOSUNNY   84  55  36 SE8       29.83F
LITTLE ROCK    MOSUNNY   77  46  33 SE6       29.93F

......OKLAHOMA.......

CITY           SKY/WX    TMP DP  RH WIND       PRES   REMARKS
TULSA          MOSUNNY   84  56  38 S17G28    29.76F
PONCA CITY     SUNNY     89  44  20 S14G28    29.73F
MCALESTER      SUNNY     84  55  36 S10G24    29.81F
OKLAHOMA CITY  PTSUNNY   86  52  30 S20G32    29.75F

......IOWA............

CITY           SKY/WX    TMP DP  RH WIND       PRES   REMARKS
DES MOINES     LGT RAIN  48  40  73 SE18G25   29.92F
QUAD CITIES    CLOUDY    56  28  34 E9        30.07F

......ILLINOIS........

CITY           SKY/WX    TMP DP  RH WIND       PRES   REMARKS
QUINCY         CLOUDY    59  32  36 SE15      30.00F
CHICAGO        PTSUNNY   49  23  36 NE9G18    30.12F




USA.gov is the U.S. government's official web portal to all federal, state and local government web resources and services.